Franklin, PA

10:50 AM EST on December 09, 2019 (GMT -0500)
Venango Regional

Weather History for KFKL - November, 2019

Change the Weather History Date:

Tuesday, November 19, 2019

  Actual Average Record
Temperature  
Mean Temperature 32 °F -  
Max Temperature 39 °F 48 °F 72 °F (1930)
Min Temperature 26 °F 30 °F 6 °F (2014)
Degree Days  
Heating Degree Days 32    
Moisture  
Dew Point 32 °F    
Average Humidity 93    
Maximum Humidity 100    
Minimum Humidity 86    
Precipitation  
Precipitation 0.00 in - - ()
Sea Level Pressure  
Sea Level Pressure 29.84 in    
Wind  
Wind Speed 3 mph (SW)    
Max Wind Speed 7 mph    
Max Gust Speed -    
Visibility 4 miles    
Events Fog , Rain , Snow    
Averages and records for this station are not official NWS values.
T = Trace of Precipitation, MM = Missing Value Source: NWS Daily Summary

Daily Weather History Graph

Daily Weather History Graph

Search for Another Location

Airport or City:

Astronomy

Nov. 19, 2019 Rise Set
Actual Time 7:12 AM EST 4:56 PM EST
Civil Twilight 6:42 AM EST 5:26 PM EST
Nautical Twilight 6:08 AM EST 6:00 PM EST
Astronomical Twilight 5:35 AM EST 6:33 PM EST
Moon 11:51 PM EST (11/19) 1:21 PM EST (11/19)
Length of Visible Light 10h 44m
Length of Day
9h 44m
Waning Gibbous, 52% of the Moon is Illuminated
Nov 19
Waning Gibbous
Nov 19
Last Quarter
Nov 26
New
Dec 4
First Quarter
Dec 12
Full

Hourly Weather History & Observations

Time (EST) Temp. Windchill Dew Point Humidity Pressure Visibility Wind Dir Wind Speed Gust Speed Precip Events Conditions
12:56 AM 28.0 °F 21.7 °F 26.1 °F 92% 29.75 in 4.0 mi SW 5.8 mph - N/A   Clear
1:12 AM 28.4 °F - 26.6 °F 93% 29.70 in 1.5 mi Calm Calm - N/A   Clear
1:21 AM 28.4 °F - 26.6 °F 93% 29.70 in 3.0 mi Calm Calm - N/A   Clear
1:56 AM 28.9 °F 23.9 °F 28.0 °F 96% 29.74 in 10.0 mi SW 4.6 mph - N/A   Clear
2:56 AM 28.9 °F 23.9 °F 27.0 °F 92% 29.75 in 9.0 mi WSW 4.6 mph - N/A   Clear
3:56 AM 27.0 °F 20.5 °F 26.1 °F 96% 29.75 in 4.0 mi SW 5.8 mph - N/A   Clear
4:56 AM 27.0 °F 19.5 °F 26.1 °F 96% 29.77 in 10.0 mi SW 6.9 mph - N/A   Clear
5:44 AM 26.6 °F 20.0 °F 26.6 °F 100% 29.74 in 6.0 mi WSW 5.8 mph - N/A   Scattered Clouds
5:52 AM 26.6 °F 19.1 °F 26.6 °F 100% 29.74 in 2.5 mi WSW 6.9 mph - N/A   Mostly Cloudy
5:56 AM 28.0 °F 21.7 °F 26.1 °F 92% 29.79 in 0.8 mi WSW 5.8 mph - N/A   Mostly Cloudy
6:01 AM 28.4 °F 22.2 °F 26.6 °F 93% 29.74 in 0.2 mi West 5.8 mph - 0.00 in Fog , Snow Light Snow
6:56 AM 28.9 °F 25.2 °F 28.0 °F 96% 29.81 in 0.2 mi Variable 3.5 mph - 0.00 in Fog Light Freezing Fog
7:56 AM 28.9 °F 25.2 °F 28.0 °F 96% 29.83 in 0.2 mi SSW 3.5 mph - N/A Fog Light Freezing Fog
8:56 AM 30.0 °F - 28.9 °F 96% 29.84 in 0.2 mi Calm Calm - N/A Fog Light Freezing Fog
9:47 AM 32.0 °F - 30.2 °F 93% 29.80 in 0.5 mi Calm Calm - N/A Fog Fog
9:56 AM 32.0 °F - 30.9 °F 96% 29.85 in 0.2 mi Calm Calm - N/A Fog Fog
10:29 AM 33.8 °F - 33.8 °F 100% 29.80 in 0.8 mi Calm Calm - N/A   Overcast
10:41 AM 33.8 °F - 33.8 °F 100% 29.81 in 1.2 mi Calm Calm - N/A   Overcast
10:56 AM 35.1 °F - 34.0 °F 96% 29.86 in 2.5 mi Calm Calm - N/A   Overcast
11:03 AM 35.6 °F - 33.8 °F 93% 29.81 in 3.0 mi Calm Calm - N/A   Overcast
11:56 AM 37.9 °F - 36.0 °F 93% 29.85 in 7.0 mi Calm Calm - N/A   Overcast
12:04 PM 39.2 °F - 35.6 °F 87% 29.80 in 5.0 mi Calm Calm - N/A   Overcast
12:56 PM 39.0 °F 36.8 °F 36.0 °F 89% 29.84 in 10.0 mi South 3.5 mph - N/A   Overcast
1:56 PM 39.0 °F 36.8 °F 35.1 °F 86% 29.85 in 10.0 mi South 3.5 mph - N/A   Overcast
2:56 PM 39.0 °F 36.8 °F 35.1 °F 86% 29.86 in 10.0 mi SSE 3.5 mph - N/A   Overcast
3:29 PM 39.2 °F 35.0 °F 35.6 °F 87% 29.82 in 10.0 mi South 5.8 mph - N/A   Overcast
3:49 PM 37.4 °F 32.1 °F 35.6 °F 93% 29.83 in 9.0 mi SW 6.9 mph - 0.00 in Rain Light Rain
3:56 PM 37.9 °F 33.5 °F 35.1 °F 89% 29.88 in 8.0 mi SW 5.8 mph - 0.00 in Rain Light Rain
4:11 PM 37.4 °F 34.9 °F 35.6 °F 93% 29.83 in 7.0 mi SW 3.5 mph - 0.00 in Rain Light Rain
4:21 PM 37.4 °F 32.8 °F 35.6 °F 93% 29.84 in 6.0 mi SW 5.8 mph - 0.00 in   Overcast
4:52 PM 37.4 °F 34.9 °F 35.6 °F 93% 29.85 in 6.0 mi SSW 3.5 mph - 0.00 in   Overcast
4:56 PM 37.0 °F 34.5 °F 35.1 °F 93% 29.90 in 6.0 mi SW 3.5 mph - 0.00 in   Overcast
5:56 PM 37.0 °F 34.5 °F 35.1 °F 93% 29.91 in 6.0 mi SSW 3.5 mph - N/A   Overcast
6:35 PM 37.4 °F 34.9 °F 35.6 °F 93% 29.87 in 6.0 mi SW 3.5 mph - N/A   Overcast
6:56 PM 36.0 °F 33.3 °F 35.1 °F 97% 29.93 in 6.0 mi SW 3.5 mph - N/A   Overcast
7:54 PM 35.6 °F 31.7 °F 33.8 °F 93% 29.88 in 2.5 mi WSW 4.6 mph - 0.00 in   Overcast
7:56 PM 36.0 °F 32.1 °F 34.0 °F 93% 29.93 in 2.5 mi WSW 4.6 mph - 0.00 in   Overcast
8:09 PM 35.6 °F 32.8 °F 33.8 °F 93% 29.88 in 2.5 mi WSW 3.5 mph - 0.00 in   Overcast
8:27 PM 35.6 °F 31.7 °F 33.8 °F 93% 29.89 in 2.0 mi WSW 4.6 mph - 0.00 in   Overcast
8:56 PM 36.0 °F - 34.0 °F 93% 29.94 in 2.0 mi Calm Calm - 0.00 in   Overcast
9:31 PM 35.6 °F - 33.8 °F 93% 29.90 in 1.8 mi Calm Calm - 0.00 in   Overcast
9:56 PM 36.0 °F - - N/A% 29.95 in 1.8 mi Calm Calm - 0.00 in   Overcast
10:06 PM - - - N/A% 29.90 in 1.5 mi Calm Calm - 0.00 in   Overcast
10:13 PM - - - N/A% 29.90 in 1.5 mi Calm Calm - 0.00 in   Overcast
10:56 PM 36.0 °F - 34.0 °F 93% 29.95 in 1.5 mi Calm Calm - 0.00 in   Overcast
11:56 PM 36.0 °F - 34.0 °F 93% 29.95 in 1.2 mi Calm Calm - N/A   Overcast